Taos, NM

2:03 AM MDT on July 24, 2017 (GMT -0600)
Taos Municipal

Weather History for KSKX - June, 2013

Change the Weather History Date:

Sunday, June 9, 2013

  Actual Average Record
Temperature  
Mean Temperature 66 °F -  
Max Temperature 89 °F 76 °F 89 °F (2013)
Min Temperature 44 °F 40 °F 33 °F (2008)
Cooling Degree Days 2    
Growing Degree Days 16 (Base 50)    
Moisture  
Dew Point 36 °F    
Average Humidity 34    
Maximum Humidity 66    
Minimum Humidity 10    
Precipitation  
Precipitation 0.00 in - - ()
Sea Level Pressure  
Sea Level Pressure 30.19 in    
Wind  
Wind Speed 10 mph (NNW)    
Max Wind Speed 22 mph    
Max Gust Speed 26 mph    
Visibility 10 miles    
Events      
Averages and records for this station are not official NWS values.
T = Trace of Precipitation, MM = Missing Value Source: NWS Daily Summary

Daily Weather History Graph

Daily Weather History Graph

Search for Another Location

Airport or City:

Trip Planner

Search our weather history database for the weather conditions in past years. The results will help you decide how hot, cold, wet, or windy it might be!

Date:

Astronomy

Jun. 09, 2013 Rise Set
Actual Time 5:44 AM MDT 8:20 PM MDT
Civil Twilight 5:13 AM MDT 8:50 PM MDT
Nautical Twilight 4:36 AM MDT 9:28 PM MDT
Astronomical Twilight 3:54 AM MDT 10:10 PM MDT
Moon 6:41 AM MDT (6/9) 9:10 PM MDT (6/9)
Length of Visible Light 15h 36m
Length of Day
14h 35m
New Moon, 1% of the Moon is Illuminated
Jun 9
New Moon
Jun 16
First Quarter
Jun 23
Full
Jun 29
Last Quarter
Jul 8
New

Hourly Weather History & Observations

Time (MDT) Temp. Windchill Dew Point Humidity Pressure Visibility Wind Dir Wind Speed Gust Speed Precip Events Conditions
12:15 AM 64.4 °F - 42.8 °F 45% 30.16 in 10.0 mi SE 21.9 mph 26.5 mph N/A   Clear
12:35 AM 62.6 °F - 42.8 °F 48% 30.16 in 10.0 mi ESE 21.9 mph - N/A   Clear
12:55 AM 62.6 °F - 42.8 °F 48% 30.16 in 10.0 mi ESE 16.1 mph - N/A   Clear
1:15 AM 62.6 °F - 42.8 °F 48% 30.16 in 10.0 mi ESE 17.3 mph 23.0 mph N/A   Clear
1:35 AM 62.6 °F - 42.8 °F 48% 30.17 in 10.0 mi ESE 13.8 mph - N/A   Clear
1:55 AM 57.2 °F - 39.2 °F 51% 30.16 in 10.0 mi East 8.1 mph - N/A   Clear
2:15 AM 57.2 °F - 37.4 °F 48% 30.17 in 10.0 mi Calm Calm - N/A   Clear
2:35 AM 59.0 °F - 41.0 °F 51% 30.16 in 10.0 mi ESE 15.0 mph 20.7 mph N/A   Clear
2:55 AM 60.8 °F - 41.0 °F 48% 30.16 in 10.0 mi SE 13.8 mph - N/A   Clear
3:15 AM 59.0 °F - 41.0 °F 51% 30.16 in 10.0 mi ESE 15.0 mph - N/A   Clear
3:35 AM 51.8 °F - 35.6 °F 54% 30.16 in 10.0 mi NE 8.1 mph - N/A   Clear
3:55 AM 51.8 °F - 35.6 °F 54% 30.17 in 10.0 mi ENE 8.1 mph - N/A   Clear
4:15 AM 48.2 °F - 35.6 °F 62% 30.17 in 10.0 mi NE 8.1 mph - N/A   Clear
4:35 AM 51.8 °F - 35.6 °F 54% 30.18 in 10.0 mi East 5.8 mph - N/A   Clear
4:55 AM 51.8 °F - 37.4 °F 58% 30.18 in 10.0 mi NE 6.9 mph - N/A   Clear
5:15 AM 53.6 °F - 37.4 °F 54% 30.19 in 10.0 mi North 9.2 mph - N/A   Clear
5:35 AM 46.4 °F 43.5 °F 35.6 °F 66% 30.20 in 10.0 mi North 5.8 mph - N/A   Clear
5:55 AM 44.6 °F - 33.8 °F 66% 30.22 in 10.0 mi Calm Calm - N/A   Clear
6:15 AM 46.4 °F 44.3 °F 33.8 °F 62% 30.21 in 10.0 mi NNE 4.6 mph - N/A   Clear
6:35 AM 48.2 °F - 35.6 °F 62% 30.22 in 10.0 mi Calm Calm - N/A   Clear
6:55 AM 51.8 °F - 35.6 °F 54% 30.22 in 10.0 mi Calm Calm - N/A   Clear
7:15 AM 55.4 °F - 37.4 °F 51% 30.23 in 10.0 mi NNW 3.5 mph - N/A   Clear
7:35 AM 57.2 °F - 37.4 °F 48% 30.24 in 10.0 mi NW 4.6 mph - N/A   Clear
7:55 AM 57.2 °F - 39.2 °F 51% 30.25 in 10.0 mi NNW 3.5 mph - N/A   Clear
8:15 AM 62.6 °F - 41.0 °F 45% 30.25 in 10.0 mi Calm Calm - N/A   Clear
8:35 AM 62.6 °F - 42.8 °F 48% 30.26 in 10.0 mi SW 6.9 mph - N/A   Clear
8:55 AM 64.4 °F - 42.8 °F 45% 30.26 in 10.0 mi WSW 8.1 mph - N/A   Clear
9:15 AM 64.4 °F - 42.8 °F 45% 30.26 in 10.0 mi SW 4.6 mph - N/A   Clear
9:35 AM 66.2 °F - 44.6 °F 46% 30.26 in 10.0 mi WSW 4.6 mph - N/A   Clear
9:55 AM 69.8 °F - 44.6 °F 40% 30.25 in 10.0 mi NW 4.6 mph - N/A   Clear
10:15 AM 71.6 °F - 44.6 °F 38% 30.25 in 10.0 mi West 3.5 mph - N/A   Clear
10:35 AM 73.4 °F - 44.6 °F 36% 30.25 in 10.0 mi Calm Calm - N/A   Clear
10:55 AM 73.4 °F - 42.8 °F 33% 30.25 in 10.0 mi Calm Calm - N/A   Clear
11:15 AM 75.2 °F - 42.8 °F 31% 30.24 in 10.0 mi WNW 8.1 mph - N/A   Clear
11:35 AM 77.0 °F - 39.2 °F 26% 30.24 in 10.0 mi North 5.8 mph - N/A   Clear
11:55 AM 78.8 °F - 39.2 °F 24% 30.23 in 10.0 mi Calm Calm - N/A   Clear
12:15 PM 80.6 °F - 35.6 °F 20% 30.23 in 10.0 mi North 5.8 mph - N/A   Clear
12:35 PM 80.6 °F - 35.6 °F 20% 30.22 in 10.0 mi NNW 8.1 mph - N/A   Clear
12:55 PM 82.4 °F - 35.6 °F 19% 30.21 in 10.0 mi NW 11.5 mph 21.9 mph N/A   Clear
1:15 PM 82.4 °F - 35.6 °F 19% 30.21 in 10.0 mi WNW 9.2 mph 17.3 mph N/A   Clear
1:35 PM 84.2 °F - 33.8 °F 16% 30.20 in 10.0 mi NW 11.5 mph 19.6 mph N/A   Clear
1:55 PM 84.2 °F - 33.8 °F 16% 30.20 in 10.0 mi WNW 8.1 mph 17.3 mph N/A   Clear
2:15 PM 84.2 °F - 30.2 °F 14% 30.19 in 10.0 mi West 11.5 mph - N/A   Clear
2:35 PM 84.2 °F - 32.0 °F 15% 30.19 in 10.0 mi North 5.8 mph - N/A   Clear
2:55 PM 87.8 °F - 28.4 °F 12% 30.18 in 10.0 mi WNW 3.5 mph 16.1 mph N/A   Clear
3:15 PM 87.8 °F - 26.6 °F 11% 30.17 in 10.0 mi NNW 8.1 mph 23.0 mph N/A   Clear
3:35 PM 89.6 °F - 26.6 °F 10% 30.16 in 10.0 mi WNW 8.1 mph 18.4 mph N/A   Clear
3:55 PM 87.8 °F - 26.6 °F 11% 30.16 in 10.0 mi North 5.8 mph - N/A   Clear
4:15 PM 89.6 °F - 26.6 °F 10% 30.15 in 10.0 mi WNW 15.0 mph 18.4 mph N/A   Clear
4:35 PM 87.8 °F - 24.8 °F 10% 30.16 in 10.0 mi North 6.9 mph - N/A   Clear
4:55 PM 87.8 °F - 26.6 °F 11% 30.15 in 10.0 mi North 9.2 mph - N/A   Clear
5:15 PM 87.8 °F - 24.8 °F 10% 30.15 in 10.0 mi SSW 9.2 mph - N/A   Clear
5:35 PM 87.8 °F - 24.8 °F 10% 30.14 in 10.0 mi West 9.2 mph - N/A   Clear
5:55 PM 87.8 °F - 24.8 °F 10% 30.14 in 10.0 mi SW 5.8 mph - N/A   Clear
6:15 PM 87.8 °F - 26.6 °F 11% 30.14 in 10.0 mi West 9.2 mph - N/A   Clear
6:35 PM 87.8 °F - 26.6 °F 11% 30.14 in 10.0 mi West 3.5 mph - N/A   Clear
6:55 PM 84.2 °F - 26.6 °F 12% 30.14 in 10.0 mi Calm Calm - N/A   Clear
7:15 PM 82.4 °F - 24.8 °F 12% 30.14 in 10.0 mi Calm Calm - N/A   Clear
7:35 PM 82.4 °F - 24.8 °F 12% 30.15 in 10.0 mi WSW 3.5 mph - N/A   Clear
7:55 PM 80.6 °F - 24.8 °F 13% 30.15 in 10.0 mi WSW 8.1 mph - N/A   Clear
8:15 PM 78.8 °F - 30.2 °F 17% 30.16 in 10.0 mi WSW 9.2 mph - N/A   Clear
8:35 PM 75.2 °F - 30.2 °F 19% 30.17 in 10.0 mi WNW 5.8 mph - N/A   Clear
8:55 PM 75.2 °F - 28.4 °F 18% 30.18 in 10.0 mi SSE 9.2 mph - N/A   Clear
9:15 PM 75.2 °F - 44.6 °F 34% 30.18 in 10.0 mi SE 11.5 mph - N/A   Clear
9:35 PM 73.4 °F - 44.6 °F 36% 30.19 in 10.0 mi SE 8.1 mph - N/A   Clear
9:55 PM 71.6 °F - 44.6 °F 38% 30.20 in 10.0 mi ESE 10.4 mph - N/A   Clear
10:15 PM 71.6 °F - 46.4 °F 41% 30.21 in 10.0 mi ESE 10.4 mph - N/A   Clear
10:35 PM 69.8 °F - 46.4 °F 43% 30.21 in 10.0 mi ESE 9.2 mph - N/A   Clear
10:55 PM 68.0 °F - 46.4 °F 46% 30.21 in 10.0 mi ESE 9.2 mph - N/A   Clear
11:15 PM 68.0 °F - 44.6 °F 43% 30.22 in 10.0 mi East 6.9 mph - N/A   Clear
11:35 PM 68.0 °F - 46.4 °F 46% 30.22 in 10.0 mi ESE 9.2 mph - N/A   Clear
11:55 PM 66.2 °F - 44.6 °F 46% 30.22 in 10.0 mi East 9.2 mph - N/A   Clear